Location: Skalnate Pleso
(49.1889°N, 20.2450°E)
Time: 21:27:22
(UTC+02:00)

Cosmos 1605 Rocket - Pass Details

Date: 22 February 2020
Orbit: 944 x 1006 km, 82.9° (Epoch: 09 April)

Event Time Altitude Azimuth Distance (km) Brightness Sun altitude
Rises 01:54:27 0° 358° (N) 3,694 7.5 -43.7°
Reaches altitude 10° 01:57:47 10° 15° (NNE) 2,729 6.8 -43.4°
Maximum altitude 02:02:13 20° 61° (ENE) 2,079 6.2 -42.8°
Enters shadow 02:06:03 12° 103° (ESE) 2,558 6.4 -42.4°
Exits shadow 02:09:38 - 123° (ESE) 3,558 7.1 -42.0°
Sets 02:09:49 0° 124° (SE) 3,620 7.1 -41.9°
